This is the latest recevied weather packets stored in our database for station/object N4TLC. If no packets are shown the sender has not sent any weather packets the latest 10 day(s).
| Time | Temp. | Humidity | Pressure | Rain* | Wind** | Luminosity | Snow |
|---|---|---|---|---|---|---|---|
| 1777915069 | 22.22° C | 35% | 1017.3 hPa | 0 mm | - | 151 W/m² | - |
| 1777914766 | 22.22° C | 35% | 1017.2 hPa | 0 mm | - | 102 W/m² | - |
| 1777914463 | 22.78° C | 34% | 1017.6 hPa | 0 mm | - | 110 W/m² | - |
| 1777914161 | 22.22° C | 34% | 1018 hPa | 0 mm | - | 103 W/m² | - |
| 1777913856 | 22.22° C | 33% | 1017.8 hPa | 0 mm | - | 96 W/m² | - |
| 1777913553 | 22.78° C | 34% | 1017.6 hPa | 0 mm | - | 94 W/m² | - |
| 1777913249 | 22.78° C | 34% | 1017.5 hPa | 0 mm | - | 148 W/m² | - |
| 1777912947 | 22.78° C | 33% | 1017.8 hPa | 0 mm | - | 945 W/m² | - |
| 1777912642 | 22.22° C | 33% | 1017.7 hPa | 0 mm | - | 995 W/m² | - |
| 1777912339 | 21.67° C | 34% | 1018.1 hPa | 0 mm | - | 987 W/m² | - |
| 1777912034 | 21.67° C | 34% | 1018.1 hPa | 0 mm | - | 975 W/m² | - |
| 1777911731 | 21.67° C | 34% | 1018.4 hPa | 0 mm | - | 964 W/m² | - |
| 1777911428 | 21.11° C | 34% | 1018.4 hPa | 0 mm | - | 969 W/m² | - |
| 1777911125 | 21.11° C | 34% | 1018.5 hPa | 0 mm | - | 933 W/m² | - |
| 1777910822 | 20.56° C | 35% | 1018.7 hPa | 0 mm | - | 912 W/m² | - |
| 1777910519 | 21.11° C | 34% | 1018.8 hPa | 0 mm | - | 721 W/m² | - |
| 1777910215 | 21.11° C | 34% | 1018.8 hPa | 0 mm | - | 471 W/m² | - |
| 1777909913 | 20.56° C | 34% | 1019 hPa | 0 mm | - | 357 W/m² | - |
| 1777909610 | 20.56° C | 36% | 1019 hPa | 0 mm | - | 360 W/m² | - |
| 1777909307 | 20.56° C | 37% | 1019.2 hPa | 0 mm | - | 637 W/m² | - |
| 1777909004 | 20.56° C | 36% | 1019.1 hPa | 0 mm | - | 792 W/m² | - |
| 1777908702 | 20° C | 37% | 1019.2 hPa | 0 mm | - | 164 W/m² | - |
| 1777908399 | 20° C | 37% | 1019 hPa | 0 mm | - | 137 W/m² | - |
| 1777908096 | 20° C | 37% | 1018.9 hPa | 0 mm | - | 82 W/m² | - |
| 1777907792 | 20° C | 40% | 1019.2 hPa | 0 mm | - | 79 W/m² | - |
* Rain latest hour (hover to see other rain measurements)
** Current wind speed in m/s (hover to see current wind gust speed)